Time,TemperatureF,DewpointF,PressureIn,WindDirection,WindDirectionDegrees,WindSpeedMPH,WindSpeedGustMPH,Humidity,HourlyPrecipIn,Conditions,Clouds,dailyrainin,SoftwareType,DateUTC
2013-07-27 00:14:00,63.4,61.4,29.86,West,270,0.2,0.2,93,0.00,,,0.00,WUHU216HW,2013-07-27 04:14:00,
2013-07-27 00:29:00,63.2,61.2,29.86,West,261,0.7,1.3,93,0.00,,,0.00,WUHU216HW,2013-07-27 04:29:00,
2013-07-27 00:44:00,63.0,61.0,29.86,North,0,0.0,0.0,93,0.00,,,0.00,WUHU216HW,2013-07-27 04:44:00,
2013-07-27 00:59:00,62.8,60.9,29.86,West,270,0.2,0.2,93,0.00,,,0.00,WUHU216HW,2013-07-27 04:59:00,
2013-07-27 01:14:00,62.8,60.9,29.86,West,265,0.7,1.1,93,0.00,,,0.00,WUHU216HW,2013-07-27 05:14:00,
2013-07-27 01:29:00,62.6,60.7,29.86,West,270,0.6,1.1,93,0.00,,,0.00,WUHU216HW,2013-07-27 05:29:00,
2013-07-27 01:44:00,62.6,60.7,29.85,North,0,0.0,0.0,93,0.00,,,0.00,WUHU216HW,2013-07-27 05:44:00,
2013-07-27 01:59:00,62.5,60.5,29.85,North,0,0.0,0.0,93,0.00,,,0.00,WUHU216HW,2013-07-27 05:59:00,
2013-07-27 02:14:00,62.3,60.3,29.84,North,0,0.0,0.0,93,0.00,,,0.00,WUHU216HW,2013-07-27 06:14:00,
2013-07-27 02:29:00,62.1,60.1,29.84,North,0,0.0,0.0,93,0.00,,,0.00,WUHU216HW,2013-07-27 06:29:00,
2013-07-27 02:44:00,61.9,60.0,29.84,North,0,0.0,0.0,93,0.00,,,0.00,WUHU216HW,2013-07-27 06:44:00,
2013-07-27 02:59:00,61.6,59.6,29.84,North,0,0.0,0.0,93,0.00,,,0.00,WUHU216HW,2013-07-27 06:59:00,
2013-07-27 03:14:00,61.2,59.2,29.84,North,0,0.0,0.0,93,0.00,,,0.00,WUHU216HW,2013-07-27 07:14:00,
2013-07-27 03:29:00,61.0,59.1,29.84,North,0,0.0,0.0,93,0.00,,,0.00,WUHU216HW,2013-07-27 07:29:00,
2013-07-27 03:44:00,60.7,58.7,29.84,North,0,0.0,0.0,93,0.00,,,0.00,WUHU216HW,2013-07-27 07:44:00,
2013-07-27 03:59:00,60.3,58.3,29.85,West,270,0.8,1.1,93,0.00,,,0.00,WUHU216HW,2013-07-27 07:59:00,
2013-07-27 04:14:00,60.1,58.2,29.85,NNE,16,0.4,0.7,93,0.00,,,0.00,WUHU216HW,2013-07-27 08:14:00,
2013-07-27 04:29:00,59.6,57.6,29.86,WNW,294,0.6,1.1,93,0.00,,,0.00,WUHU216HW,2013-07-27 08:29:00,
2013-07-27 04:44:00,59.4,57.4,29.86,WSW,248,0.9,1.6,93,0.00,,,0.00,WUHU216HW,2013-07-27 08:44:00,
2013-07-27 04:59:00,59.2,57.5,29.86,WNW,303,0.6,1.8,94,0.00,,,0.00,WUHU216HW,2013-07-27 08:59:00,
2013-07-27 05:14:00,58.9,56.9,29.87,West,262,0.7,1.3,93,0.00,,,0.00,WUHU216HW,2013-07-27 09:14:00,
2013-07-27 05:29:00,58.7,56.7,29.87,North,0,0.0,0.0,93,0.00,,,0.00,WUHU216HW,2013-07-27 09:29:00,
2013-07-27 05:44:00,58.5,56.5,29.87,North,0,0.0,0.0,93,0.00,,,0.00,WUHU216HW,2013-07-27 09:44:00,
2013-07-27 05:59:00,58.3,56.4,29.88,North,0,0.0,0.0,93,0.00,,,0.00,WUHU216HW,2013-07-27 09:59:00,
2013-07-27 06:14:00,58.1,56.2,29.88,North,0,0.0,0.0,93,0.00,,,0.00,WUHU216HW,2013-07-27 10:14:00,
2013-07-27 06:29:00,58.1,56.2,29.89,North,0,0.0,0.0,93,0.00,,,0.00,WUHU216HW,2013-07-27 10:29:00,
2013-07-27 06:44:00,58.3,56.4,29.89,North,0,0.3,0.4,93,0.00,,,0.00,WUHU216HW,2013-07-27 10:44:00,
2013-07-27 06:59:00,58.5,56.5,29.89,NNE,16,0.6,1.1,93,0.00,,,0.00,WUHU216HW,2013-07-27 10:59:00,
2013-07-27 07:14:00,59.0,57.3,29.89,West,281,0.6,1.1,94,0.00,,,0.00,WUHU216HW,2013-07-27 11:14:00,
2013-07-27 07:29:00,59.4,57.7,29.90,NNE,12,0.7,1.8,94,0.00,,,0.00,WUHU216HW,2013-07-27 11:29:00,
2013-07-27 07:44:00,60.3,59.1,29.90,NW,305,0.8,1.1,96,0.00,,,0.00,WUHU216HW,2013-07-27 11:44:00,
2013-07-27 07:59:00,61.4,60.2,29.90,North,8,0.6,1.3,96,0.00,,,0.00,WUHU216HW,2013-07-27 11:59:00,
2013-07-27 08:14:00,62.3,61.1,29.91,NE,40,0.4,1.1,96,0.00,,,0.00,WUHU216HW,2013-07-27 12:14:00,
2013-07-27 08:29:00,63.7,62.6,29.91,NNE,21,1.0,2.0,96,0.00,,,0.00,WUHU216HW,2013-07-27 12:29:00,
2013-07-27 08:44:00,65.3,63.8,29.91,NE,41,0.9,2.5,95,0.00,,,0.00,WUHU216HW,2013-07-27 12:44:00,
2013-07-27 08:59:00,67.0,64.8,29.91,North,11,0.8,2.0,93,0.00,,,0.00,WUHU216HW,2013-07-27 12:59:00,
2013-07-27 09:14:00,69.1,66.3,29.90,WSW,239,0.9,2.5,91,0.00,,,0.00,WUHU216HW,2013-07-27 13:14:00,
2013-07-27 09:29:00,70.2,66.8,29.90,NNE,21,0.9,2.2,89,0.00,,,0.00,WUHU216HW,2013-07-27 13:29:00,
2013-07-27 09:44:00,72.5,67.4,29.90,NE,50,0.8,2.0,84,0.00,,,0.00,WUHU216HW,2013-07-27 13:44:00,
2013-07-27 09:59:00,74.5,68.4,29.90,East,88,1.5,3.4,81,0.00,,,0.00,WUHU216HW,2013-07-27 13:59:00,
2013-07-27 10:14:00,75.6,68.0,29.90,NE,42,1.2,3.1,77,0.00,,,0.00,WUHU216HW,2013-07-27 14:14:00,
2013-07-27 10:29:00,77.2,68.7,29.91,ENE,66,1.2,3.4,75,0.00,,,0.00,WUHU216HW,2013-07-27 14:29:00,
2013-07-27 10:44:00,78.1,68.3,29.91,ENE,70,1.3,3.6,72,0.00,,,0.00,WUHU216HW,2013-07-27 14:44:00,
2013-07-27 11:00:00,79.0,68.0,29.91,NE,42,1.4,3.6,69,0.00,,,0.00,WUHU216HW,2013-07-27 15:00:00,
2013-07-27 11:15:00,80.1,67.7,29.91,NNE,25,1.3,3.4,66,0.00,,,0.00,WUHU216HW,2013-07-27 15:15:00,
2013-07-27 11:30:00,80.8,67.5,29.91,ESE,117,1.2,2.9,64,0.00,,,0.00,WUHU216HW,2013-07-27 15:30:00,
2013-07-27 11:45:00,82.3,67.4,29.91,NE,41,1.5,4.0,61,0.00,,,0.00,WUHU216HW,2013-07-27 15:45:00,
2013-07-27 12:00:00,82.4,67.1,29.91,ENE,69,2.2,5.4,60,0.00,,,0.00,WUHU216HW,2013-07-27 16:00:00,
2013-07-27 12:15:00,82.4,66.6,29.91,West,271,1.2,3.6,59,0.00,,,0.00,WUHU216HW,2013-07-27 16:15:00,
2013-07-27 12:30:00,82.8,65.4,29.90,ESE,112,1.5,2.7,56,0.00,,,0.00,WUHU216HW,2013-07-27 16:30:00,
2013-07-27 12:45:00,83.3,66.0,29.90,ENE,74,1.4,3.4,56,0.00,,,0.00,WUHU216HW,2013-07-27 16:45:00,
2013-07-27 13:00:00,84.1,67.2,29.90,East,97,1.5,4.0,57,0.00,,,0.00,WUHU216HW,2013-07-27 17:00:00,
2013-07-27 13:15:00,84.1,67.2,29.89,ESE,108,1.5,4.5,57,0.00,,,0.00,WUHU216HW,2013-07-27 17:15:00,
2013-07-27 13:30:00,84.4,67.1,29.89,ESE,102,1.0,2.7,56,0.00,,,0.00,WUHU216HW,2013-07-27 17:30:00,
2013-07-27 13:45:00,85.3,67.3,29.89,East,90,1.2,4.0,55,0.00,,,0.00,WUHU216HW,2013-07-27 17:45:00,
2013-07-27 14:00:00,85.3,66.8,29.89,SSW,208,1.2,3.1,54,0.00,,,0.00,WUHU216HW,2013-07-27 18:00:00,
2013-07-27 14:15:00,85.5,66.4,29.89,SE,130,1.3,2.5,53,0.00,,,0.00,WUHU216HW,2013-07-27 18:15:00,
2013-07-27 14:30:00,85.0,65.4,29.89,East,86,1.5,3.6,52,0.00,,,0.00,WUHU216HW,2013-07-27 18:30:00,
2013-07-27 14:45:00,84.4,66.0,29.89,SE,125,1.4,4.0,54,0.00,,,0.00,WUHU216HW,2013-07-27 18:45:00,
2013-07-27 15:00:00,84.1,65.6,29.89,ESE,123,1.4,4.7,54,0.00,,,0.00,WUHU216HW,2013-07-27 19:00:00,
2013-07-27 15:15:00,83.3,64.9,29.89,SE,126,1.2,2.9,54,0.00,,,0.00,WUHU216HW,2013-07-27 19:15:00,
2013-07-27 15:30:00,82.8,64.9,29.89,SE,126,1.1,2.7,55,0.00,,,0.00,WUHU216HW,2013-07-27 19:30:00,
2013-07-27 15:45:00,82.6,64.7,29.89,SSW,210,1.4,3.1,55,0.00,,,0.00,WUHU216HW,2013-07-27 19:45:00,
2013-07-27 16:00:00,82.3,64.4,29.89,ESE,123,1.4,4.0,55,0.00,,,0.00,WUHU216HW,2013-07-27 20:00:00,
2013-07-27 16:15:00,81.5,63.7,29.89,ESE,111,1.3,3.8,55,0.00,,,0.00,WUHU216HW,2013-07-27 20:15:00,
2013-07-27 16:30:00,81.0,63.3,29.89,ESE,117,1.6,3.4,55,0.00,,,0.00,WUHU216HW,2013-07-27 20:30:00,
2013-07-27 16:45:00,80.8,62.6,29.89,ESE,120,1.5,3.1,54,0.00,,,0.00,WUHU216HW,2013-07-27 20:45:00,
2013-07-27 17:00:00,80.3,61.6,29.89,NE,34,1.0,2.9,53,0.00,,,0.00,WUHU216HW,2013-07-27 21:00:00,
2013-07-27 17:15:00,79.9,61.7,29.89,ESE,123,0.5,1.3,54,0.00,,,0.00,WUHU216HW,2013-07-27 21:15:00,
2013-07-27 17:30:00,79.6,63.6,29.88,South,180,0.6,1.1,58,0.00,,,0.00,WUHU216HW,2013-07-27 21:30:00,
2013-07-27 17:45:00,78.8,65.2,29.88,WSW,238,0.9,1.8,63,0.00,,,0.00,WUHU216HW,2013-07-27 21:45:00,
2013-07-27 18:00:00,77.8,65.1,29.88,WSW,241,1.4,2.5,65,0.00,,,0.00,WUHU216HW,2013-07-27 22:00:00,
2013-07-27 18:15:00,77.4,63.4,29.89,South,175,1.1,3.4,62,0.00,,,0.00,WUHU216HW,2013-07-27 22:15:00,
2013-07-27 18:30:00,76.7,64.4,29.89,SW,233,1.5,2.5,66,0.00,,,0.00,WUHU216HW,2013-07-27 22:30:00,
2013-07-27 18:45:00,75.8,64.4,29.88,WSW,243,1.7,3.1,68,0.00,,,0.00,WUHU216HW,2013-07-27 22:45:00,
2013-07-27 19:00:00,75.1,64.6,29.88,WSW,250,1.5,2.9,70,0.00,,,0.00,WUHU216HW,2013-07-27 23:00:00,
2013-07-27 19:15:00,74.2,64.2,29.89,WSW,243,1.6,2.5,71,0.00,,,0.00,WUHU216HW,2013-07-27 23:15:00,
2013-07-27 19:30:00,73.4,63.5,29.89,WSW,244,1.0,1.8,71,0.00,,,0.00,WUHU216HW,2013-07-27 23:30:00,
2013-07-27 19:45:00,72.9,63.4,29.89,WSW,245,1.4,2.2,72,0.00,,,0.00,WUHU216HW,2013-07-27 23:45:00,
2013-07-27 20:00:00,72.2,63.1,29.89,WSW,255,1.3,2.5,73,0.00,,,0.00,WUHU216HW,2013-07-28 00:00:00,
2013-07-27 20:15:00,71.6,62.1,29.89,West,264,0.9,1.8,72,0.00,,,0.00,WUHU216HW,2013-07-28 00:15:00,
2013-07-27 20:30:00,70.9,61.8,29.90,WSW,248,1.2,1.8,73,0.00,,,0.00,WUHU216HW,2013-07-28 00:30:00,
2013-07-27 20:45:00,70.4,61.7,29.91,WSW,248,0.7,1.1,74,0.00,,,0.00,WUHU216HW,2013-07-28 00:45:00,
2013-07-27 21:00:00,69.8,61.1,29.91,North,0,0.0,0.0,74,0.00,,,0.00,WUHU216HW,2013-07-28 01:00:00,
2013-07-27 21:15:00,69.5,61.1,29.92,North,0,0.0,0.0,75,0.00,,,0.00,WUHU216HW,2013-07-28 01:15:00,
2013-07-27 21:30:00,68.9,61.0,29.92,WSW,248,0.6,0.9,76,0.00,,,0.00,WUHU216HW,2013-07-28 01:30:00,
2013-07-27 21:45:00,68.4,60.6,29.92,North,0,0.0,0.0,76,0.00,,,0.00,WUHU216HW,2013-07-28 01:45:00,
2013-07-27 22:00:00,67.7,60.2,29.92,North,0,0.0,0.0,77,0.00,,,0.00,WUHU216HW,2013-07-28 02:00:00,
2013-07-27 22:15:00,67.3,60.3,29.92,WSW,248,0.6,0.9,78,0.00,,,0.00,WUHU216HW,2013-07-28 02:15:00,
2013-07-27 22:30:00,66.6,60.3,29.92,West,264,0.7,1.3,80,0.00,,,0.00,WUHU216HW,2013-07-28 02:30:00,
2013-07-27 22:45:00,66.2,59.9,29.92,WSW,248,0.5,0.9,80,0.00,,,0.00,WUHU216HW,2013-07-28 02:45:00,
2013-07-27 23:00:00,65.7,59.8,29.92,North,0,0.0,0.0,81,0.00,,,0.00,WUHU216HW,2013-07-28 03:00:00,
2013-07-27 23:15:00,65.3,59.7,29.92,North,0,0.0,0.0,82,0.00,,,0.00,WUHU216HW,2013-07-28 03:15:00,
2013-07-27 23:30:00,65.0,59.3,29.92,West,270,0.6,0.9,82,0.00,,,0.00,WUHU216HW,2013-07-28 03:30:00,
2013-07-27 23:45:00,64.4,58.9,29.91,North,0,0.0,0.0,82,0.00,,,0.00,WUHU216HW,2013-07-28 03:45:00,